WB2IFS-13 Weather Reports


Display with metric or nautical units.
time (UTC)temp
F
wind
direction
speed
MPH
gust
MPH
rain 1hr
in
rain 24hr
in
rain mn
in
humidity
%
barometer
mb
20260505081458 61 128 2.0 6.0 0.00 0.00 0.00 63 1012.2
20260505075959 61 142 1.0 5.0 0.00 0.00 0.00 63 1012.3
20260505074458 61 11 2.0 5.0 0.00 0.00 0.00 63 1012.3
20260505072959 61 255 1.0 4.0 0.00 0.00 0.00 64 1012.2
20260505071459 61 215 1.0 3.0 0.00 0.00 0.00 64 1012.2
20260505065958 61 188 2.0 7.0 0.00 0.00 0.00 63 1012.2
20260505064500 61 209 1.0 4.0 0.00 0.00 0.00 63 1012.2
20260505063000 61 281 0.0 2.0 0.00 0.00 0.00 64 1012.2
20260505061458 60 203 0.0 2.0 0.00 0.00 0.00 65 1012.2
20260505055958 59 154 0.0 1.0 0.00 0.00 0.00 67 1012.1
20260505054458 59 184 0.0 1.0 0.00 0.00 0.00 68 1012.1
20260505053002 59 163 0.0 0.0 0.00 0.00 0.00 67 1012.1
20260505051458 60 163 0.0 0.0 0.00 0.00 0.00 65 1012.3
20260505041458 63 149 0.0 2.0 0.00 0.00 0.00 58 1012.3
20260505040004 64 174 0.0 2.0 0.00 0.00 0.00 57 1012.2
20260505034501 64 150 0.0 2.0 0.00 0.00 0.00 56 1012.1
20260505033001 65 131 0.0 2.0 0.00 0.00 0.00 55 1012.2
20260505031501 65 128 0.0 3.0 0.00 0.00 0.00 54 1012.1
20260505030001 65 141 0.0 2.0 0.00 0.00 0.00 54 1012.0
20260505024500 65 146 0.0 3.0 0.00 0.00 0.00 54 1012.0
20260505022959 65 145 1.0 4.0 0.00 0.00 0.00 55 1012.0
20260505021500 64 174 0.0 4.0 0.00 0.00 0.00 56 1012.0
20260505020001 65 127 0.0 1.0 0.00 0.00 0.00 55 1012.1
20260505014500 65 131 0.0 2.0 0.00 0.00 0.00 54 1011.9
20260505012959 66 115 0.0 1.0 0.00 0.00 0.00 54 1011.8
20260505011500 66 151 0.0 0.0 0.00 0.00 0.00 53 1011.8
20260505010002 67 175 0.0 2.0 0.00 0.00 0.00 51 1011.6
20260505004459 68 117 0.0 1.0 0.00 0.00 0.00 49 1011.4
20260505002959 69 123 0.0 2.0 0.00 0.00 0.00 47 1011.3
20260505001459 70 129 0.0 2.0 0.00 0.00 0.00 46 1011.4
20260505000002 71 146 1.0 3.0 0.00 0.00 0.00 44 1011.4
20260504234501 72 163 2.0 5.0 0.00 0.00 0.00 42 1011.1
20260504233001 72 195 1.0 4.0 0.00 0.00 0.00 42 1011.1
20260504231500 73 93 2.0 10.0 0.00 0.00 0.00 41 1011.0
20260504230002 74 72 3.0 10.0 0.00 0.00 0.00 40 1011.1
20260504223000 74 124 3.0 11.0 0.00 0.00 0.00 39 1011.1
20260504221459 75 359 3.0 10.0 0.00 0.00 0.00 37 1011.1
20260504215959 76 122 4.0 10.0 0.00 0.00 0.00 36 1011.1
20260504212959 78 124 2.0 6.0 0.00 0.00 0.00 34 1011.1
20260504211459 78 190 2.0 6.0 0.00 0.00 0.00 34 1011.2
20260504210001 78 111 3.0 6.0 0.00 0.00 0.00 32 1011.2
20260504204504 77 48 3.0 6.0 0.00 0.00 0.00 33 1011.1
20260504203000 78 131 3.0 8.0 0.00 0.00 0.00 33 1011.2
20260504201500 78 207 3.0 9.0 0.00 0.00 0.00 34 1011.3
20260504200001 78 71 3.0 7.0 0.00 0.00 0.00 34 1011.5
20260504194500 77 186 3.0 9.0 0.00 0.00 0.00 34 1011.6
20260504192959 77 177 3.0 9.0 0.00 0.00 0.00 34 1011.9
20260504191459 78 341 2.0 9.0 0.00 0.00 0.00 33 1012.1
20260504190002 78 180 2.0 5.0 0.00 0.00 0.00 35 1012.2
20260504184501 76 346 3.0 8.0 0.00 0.00 0.00 34 1012.5
20260504183000 75 358 3.0 7.0 0.00 0.00 0.00 36 1012.7
20260504181500 75 14 3.0 7.0 0.00 0.00 0.00 36 1013.1
20260504180001 75 132 2.0 7.0 0.00 0.00 0.00 37 1013.4
20260504174459 75 200 2.0 7.0 0.00 0.00 0.00 37 1013.4
20260504173000 74 95 3.0 9.0 0.00 0.00 0.00 37 1013.8
20260504171458 74 14 2.0 6.0 0.00 0.00 0.00 36 1013.8